Voltar ao catálogo

STARLINK-35776

AtivoComunicaçõesVLEO
NORAD 66282·PAYLOAD·🇺🇸 United States

Lançado Oct 31, 2025 de Vandenberg Space Force Base

Loading…

Próximas Passagens (próximas 24 horas)

TLE

AtualizadoSource: CelesTrak SupGP

Época: Sep 14, 2026, 15:40 UTC

1 66282C 25247T   26257.65326389 -.00079923  00000+0 -23619-2 0  2579
2 66282  53.1606  30.7847 0001281  85.9437   9.4297 15.34423472    11

Acompanhe STARLINK-35776 em tempo real com AllMySat

Download on the App Store